Regional Weather Roundup
Issued by NWS

Home | Current Version | Previous Version | Text Only | Print | Product List | Glossary On
Versions: 1 2 3 4 5 6 7 8 9 10 11 12 13 14 15 16 17 18 19 20 21 22 23 24 25 26 27 28 29 30 31 32 33 34 35 36 37 38 39 40 41 42 43 44 45 46 47 48 49 50
000
ASUS45 KREV 291310
RWRNV
NEVADA REGIONAL WEATHER ROUNDUP
NATIONAL WEATHER SERVICE RENO NV
600 AM PDT FRI APR 29 2016

NOTE: "FAIR" INDICATES FEW OR NO CLOUDS BELOW 12,000 FEET WITH NO
SIGNIFICANT WEATHER AND/OR OBSTRUCTIONS TO VISIBILITY.

NVZ001-003-004-291400-
WESTERN NEVADA

CITY           SKY/WX    TMP DP  RH WIND       PRES   REMARKS
RENO           MOCLDY    43  31  62 CALM      30.02S
CARSON CITY    CLOUDY    37  32  81 CALM      30.03R
MINDEN         FAIR      32  30  93 CALM      30.03R
SLIDE MTN        N/A     28  25  86 NW12        N/A
PYRAMID LAKE     N/A     46 N/A N/A W6          N/A
FALLON         PTCLDY    41  31  67 SE7       29.97S
LOVELOCK       CLOUDY    38  29  70 NW6       29.97F
HAWTHORNE      CLEAR     41  32  70 CALM      29.99F
$$

NVZ002-CAZ072-073-291400-
NORTHERN AND CENTRAL SIERRA

CITY           SKY/WX    TMP DP  RH WIND       PRES   REMARKS
S. LAKE TAHOE  PTCLDY    30  26  85 CALM      30.04R
TRUCKEE        CLEAR     27  27 100 CALM      30.06S
SQUAW VLY 8000   N/A     32  27  80 SW6         N/A
SUSANVILLE     CLEAR     37  34  87 CALM      30.01F
BLUE CANYON    MOCLDY    45  32  60 CALM      30.04S
MAMMOTH LAKES  FAIR      31  25  78 W3        30.05F
BRIDGEPORT     FAIR      26  21  81 CALM      30.03F
$$

NVZ030-031-036-291400-
NORTHERN NEVADA

CITY           SKY/WX    TMP DP  RH WIND       PRES   REMARKS
ELKO           CLOUDY    41  36  82 S5        29.94S
WINNEMUCCA     CLOUDY    35  32  88 SE7       29.96F
WENDOVER       MOCLDY    46  28  49 NW9       29.89R
$$

NVZ035-037-291400-
CENTRAL NEVADA

CITY           SKY/WX    TMP DP  RH WIND       PRES   REMARKS
ELY            MOCLDY    32  30  92 S6        29.93S
EUREKA           N/A     35  32  88 SW5       29.95S
$$

NVZ013-014-291400-
SOUTH CENTRAL NEVADA

CITY           SKY/WX    TMP DP  RH WIND       PRES   REMARKS
TONOPAH        CLEAR     42  33  70 NW12      29.98R
$$

NVZ017-020-022-291400-
SOUTHERN NEVADA

CITY           SKY/WX    TMP DP  RH WIND       PRES   REMARKS
LAS VEGAS      PTCLDY    54  44  69 CALM      29.82S
N. LAS VEGAS   CLEAR     53  43  68 N6        29.85S
NELLIS AFB     CLEAR     51  48  87 N8        29.85S
HENDERSON      CLEAR     50  44  80 S12       29.87F
MERCURY        CLEAR     42  37  82 CALM      29.90R
$$



USA.gov is the U.S. government's official web portal to all federal, state and local government web resources and services.